Tracking 19563 objects as of 20-Mar-2019
HD Live streaming from Space Station
objects crossing your sky now

GORIZONT 31

Track GORIZONT 31 now!
GORIZONT 31 is classified as:


NORAD ID: 23775
Int'l Code: 1996-005A
Perigee: 35,828.2 km
Apogee: 35,967.5 km
Inclination: 14.4 °
Period: 1,441.4 minutes
Semi major axis: 42268 km
RCS: 12.5892 m2 (large)
Launch date: January 25, 1996
Source: Commonwealth of Independent States (former USSR) (CIS)
Launch site: TYURATAM MISSILE AND SPACE COMPLEX (TTMTR)

Telecommunications; telephone and television communications to the Russian republic.
aabbcc
Your satellite tracking list
Your tracking list is empty




NASA's NSSDC Master Catalog

Two Line Element Set (TLE):
1 23775U 96005A   19078.57410479 -.00000136 +00000-0 +00000-0 0  9997
2 23775 014.3986 015.7548 0016481 183.6885 353.9948 00.99901509084618
Source of the keplerian elements: AFSPC